Mojave, CA

8:41 AM PDT on August 28, 2016 (GMT -0700)
Mojave

Weather History for KMHV - August, 2014

Change the Weather History Date:

Saturday, August 9, 2014

  Actual Average Record
Temperature  
Mean Temperature 84 °F -  
Max Temperature 96 °F 99 °F 108 °F (1981)
Min Temperature 71 °F 69 °F 59 °F (1985)
Cooling Degree Days 18    
Growing Degree Days 34 (Base 50)    
Moisture  
Dew Point 39 °F    
Average Humidity 20    
Maximum Humidity 33    
Minimum Humidity 9    
Precipitation  
Precipitation 0.00 in - - ()
Sea Level Pressure  
Sea Level Pressure 29.98 in    
Wind  
Wind Speed 10 mph (SW)    
Max Wind Speed 21 mph    
Max Gust Speed 30 mph    
Visibility 10 miles    
Events      
Averages and records for this station are not official NWS values.
T = Trace of Precipitation, MM = Missing Value Source: NWS Daily Summary

Daily Weather History Graph

Daily Weather History Graph

Search for Another Location

Airport or City:

Trip Planner

Search our weather history database for the weather conditions in past years. The results will help you decide how hot, cold, wet, or windy it might be!

Date:

Astronomy

Aug. 09, 2014 Rise Set
Actual Time 6:08 AM PDT 7:47 PM PDT
Civil Twilight 5:40 AM PDT 8:14 PM PDT
Nautical Twilight 5:07 AM PDT 8:47 PM PDT
Astronomical Twilight 4:33 AM PDT 9:22 PM PDT
Moon 6:54 PM PDT (8/9) 4:54 AM PDT (8/9)
Length of Visible Light 14h 33m
Length of Day
13h 39m
Waxing Gibbous, 99% of the Moon is Illuminated
Aug 9
Waxing Gibbous
Aug 10
Full
Aug 17
Last Quarter
Aug 25
New
Sep 2
First Quarter

Hourly Weather History & Observations

Time (PDT) Temp. Dew Point Humidity Pressure Visibility Wind Dir Wind Speed Gust Speed Precip Events Conditions
12:15 AM 82.4 °F 44.6 °F 26% 29.95 in 10.0 mi WNW 20.7 mph - N/A   Unknown
12:35 AM 82.4 °F 46.4 °F 28% 29.95 in 10.0 mi West 20.7 mph 26.5 mph N/A   Clear
12:55 AM 82.4 °F 46.4 °F 28% 29.97 in 10.0 mi ESE 6.9 mph - N/A   Clear
1:15 AM 80.6 °F 46.4 °F 30% 29.97 in 10.0 mi NW 9.2 mph - N/A   Clear
1:35 AM 80.6 °F 46.4 °F 30% 29.96 in 10.0 mi WNW 12.7 mph 18.4 mph N/A   Clear
1:55 AM 80.6 °F 46.4 °F 30% 29.97 in 10.0 mi WNW 8.1 mph - N/A   Clear
2:15 AM 80.6 °F 44.6 °F 28% 29.96 in 10.0 mi NW 17.3 mph - N/A   Clear
2:35 AM 80.6 °F 42.8 °F 26% 29.97 in 10.0 mi NNW 4.6 mph - N/A   Clear
2:55 AM 78.8 °F 41.0 °F 26% 29.96 in 10.0 mi NW 6.9 mph - N/A   Clear
3:15 AM 80.6 °F 41.0 °F 24% 29.96 in 10.0 mi NW 10.4 mph 18.4 mph N/A   Clear
3:35 AM 78.8 °F 41.0 °F 26% 29.96 in 10.0 mi WNW 10.4 mph - N/A   Clear
3:55 AM 78.8 °F 41.0 °F 26% 29.96 in 10.0 mi NW 10.4 mph - N/A   Clear
4:15 AM 78.8 °F 41.0 °F 26% 29.97 in 10.0 mi WNW 10.4 mph - N/A   Clear
4:35 AM 77.0 °F 41.0 °F 28% 29.97 in 10.0 mi NW 5.8 mph - N/A   Clear
4:55 AM 77.0 °F 41.0 °F 28% 29.97 in 10.0 mi NW 9.2 mph - N/A   Clear
5:15 AM 77.0 °F 41.0 °F 28% 29.98 in 10.0 mi WNW 3.5 mph - N/A   Clear
5:35 AM 75.2 °F 39.2 °F 27% 29.98 in 10.0 mi Calm Calm - N/A   Clear
5:55 AM 75.2 °F 39.2 °F 27% 29.98 in 10.0 mi West 5.8 mph - N/A   Clear
6:15 AM 75.2 °F 39.2 °F 27% 29.99 in 10.0 mi NE 5.8 mph - N/A   Clear
6:35 AM 71.6 °F 41.0 °F 33% 30.00 in 10.0 mi North 3.5 mph - N/A   Clear
6:55 AM 73.4 °F 42.8 °F 33% 30.00 in 10.0 mi North 5.8 mph - N/A   Clear
7:15 AM 77.0 °F 42.8 °F 29% 30.01 in 10.0 mi North 4.6 mph - N/A   Clear
7:35 AM 80.6 °F 41.0 °F 24% 30.01 in 10.0 mi Calm Calm - N/A   Clear
7:55 AM 80.6 °F 41.0 °F 24% 30.01 in 10.0 mi Calm Calm - N/A   Clear
8:15 AM 82.4 °F 41.0 °F 23% 30.01 in 10.0 mi Calm Calm - N/A   Clear
8:35 AM 82.4 °F 41.0 °F 23% 30.02 in 10.0 mi ENE 3.5 mph - N/A   Clear
8:55 AM 84.2 °F 42.8 °F 23% 30.02 in 10.0 mi ENE 5.8 mph - N/A   Clear
9:15 AM 84.2 °F 42.8 °F 23% 30.02 in 10.0 mi ENE 5.8 mph - N/A   Clear
9:35 AM 84.2 °F 42.8 °F 23% 30.02 in 10.0 mi ENE 6.9 mph - N/A   Clear
9:55 AM 84.2 °F 42.8 °F 23% 30.02 in 10.0 mi East 5.8 mph - N/A   Clear
10:15 AM 86.0 °F 42.8 °F 22% 30.03 in 10.0 mi East 4.6 mph - N/A   Clear
10:35 AM 86.0 °F 42.8 °F 22% 30.03 in 10.0 mi East 5.8 mph - N/A   Clear
10:55 AM 87.8 °F 41.0 °F 19% 30.03 in 10.0 mi ESE 3.5 mph - N/A   Clear
11:15 AM 89.6 °F 41.0 °F 18% 30.03 in 10.0 mi East 5.8 mph - N/A   Clear
11:35 AM 89.6 °F 39.2 °F 17% 30.03 in 10.0 mi Calm Calm - N/A   Clear
11:55 AM 91.4 °F 39.2 °F 16% 30.02 in 10.0 mi ENE 5.8 mph - N/A   Clear
12:15 PM 93.2 °F 39.2 °F 15% 30.02 in 10.0 mi East 4.6 mph - N/A   Clear
12:35 PM 91.4 °F 37.4 °F 15% 30.01 in 10.0 mi Calm Calm - N/A   Clear
12:55 PM 93.2 °F 37.4 °F 14% 30.01 in 10.0 mi South 10.4 mph - N/A   Clear
1:15 PM 93.2 °F 37.4 °F 14% 30.01 in 10.0 mi SE 6.9 mph - N/A   Clear
1:35 PM 93.2 °F 32.0 °F 11% 30.00 in 10.0 mi South 8.1 mph - N/A   Clear
1:55 PM 93.2 °F 32.0 °F 11% 30.00 in 10.0 mi Calm Calm - N/A   Clear
2:15 PM 95.0 °F 32.0 °F 11% 29.99 in 10.0 mi South 10.4 mph - N/A   Clear
2:35 PM 95.0 °F 32.0 °F 11% 29.98 in 10.0 mi Calm Calm - N/A   Clear
2:55 PM 95.0 °F 32.0 °F 11% 29.98 in 10.0 mi SE 6.9 mph - N/A   Clear
3:15 PM 95.0 °F 30.2 °F 10% 29.97 in 10.0 mi SSE 10.4 mph 16.1 mph N/A   Clear
3:35 PM 95.0 °F 28.4 °F 9% 29.96 in 10.0 mi SSE 4.6 mph - N/A   Clear
3:55 PM 95.0 °F 28.4 °F 9% 29.95 in 10.0 mi South 6.9 mph - N/A   Clear
4:15 PM 95.0 °F 30.2 °F 10% 29.95 in 10.0 mi SSW 10.4 mph - N/A   Clear
4:35 PM 96.8 °F 32.0 °F 10% 29.94 in 10.0 mi Calm Calm - N/A   Clear
4:55 PM 96.8 °F 35.6 °F 12% 29.94 in 10.0 mi SW 15.0 mph 20.7 mph N/A   Clear
5:15 PM 95.0 °F 35.6 °F 12% 29.94 in 10.0 mi SSW 18.4 mph 29.9 mph N/A   Clear
5:35 PM 95.0 °F 35.6 °F 12% 29.94 in 10.0 mi SW 20.7 mph 26.5 mph N/A   Clear
5:55 PM 93.2 °F 35.6 °F 13% 29.94 in 10.0 mi SW 20.7 mph 27.6 mph N/A   Clear
6:15 PM 91.4 °F 33.8 °F 13% 29.95 in 10.0 mi SSW 18.4 mph 27.6 mph N/A   Clear
6:35 PM 91.4 °F 32.0 °F 12% 29.95 in 10.0 mi SSW 17.3 mph 21.9 mph N/A   Clear
6:55 PM 91.4 °F 32.0 °F 12% 29.95 in 10.0 mi SSW 15.0 mph 23.0 mph N/A   Clear
7:15 PM 89.6 °F 32.0 °F 13% 29.95 in 10.0 mi SSW 17.3 mph 23.0 mph N/A   Clear
7:35 PM 87.8 °F 32.0 °F 14% 29.96 in 10.0 mi SW 11.5 mph - N/A   Clear
7:55 PM 86.0 °F 33.8 °F 15% 29.96 in 10.0 mi SSW 15.0 mph - N/A   Clear
8:15 PM 86.0 °F 32.0 °F 14% 29.97 in 10.0 mi SSW 13.8 mph - N/A   Clear
9:15 PM 82.4 °F 32.0 °F 16% 29.99 in 10.0 mi SSW 16.1 mph 20.7 mph N/A   Clear
9:35 PM 84.2 °F 39.2 °F 20% 30.00 in 10.0 mi SW 13.8 mph 19.6 mph N/A   Clear
9:55 PM 84.2 °F 44.6 °F 25% 30.00 in 10.0 mi WSW 11.5 mph 19.6 mph N/A   Clear
10:15 PM 84.2 °F 44.6 °F 25% 30.01 in 10.0 mi SW 15.0 mph 19.6 mph N/A   Clear
10:35 PM 84.2 °F 44.6 °F 25% 30.01 in 10.0 mi SW 11.5 mph 18.4 mph N/A   Clear
10:55 PM 82.4 °F 44.6 °F 26% 30.00 in 10.0 mi SW 10.4 mph 18.4 mph N/A   Clear
11:15 PM 82.4 °F 44.6 °F 26% 30.00 in 10.0 mi WSW 11.5 mph 19.6 mph N/A   Clear
11:35 PM 82.4 °F 42.8 °F 25% 30.01 in 10.0 mi WSW 9.2 mph - N/A   Clear
11:55 PM 82.4 °F 44.6 °F 26% 30.01 in 10.0 mi SW 9.2 mph - N/A   Clear